This is the latest recevied weather packets stored in our database for station/object K9MWD. If no packets are shown the sender has not sent any weather packets the latest 10 day(s).
| Time | Temp. | Humidity | Pressure | Rain* | Wind** | Luminosity | Snow |
|---|---|---|---|---|---|---|---|
| 1787966638 | 35° C | 36% | 1014.5 hPa | 0 mm | - | 0 W/m² | - |
| 1787966337 | 35.56° C | 36% | 1014.4 hPa | 0 mm | - | 0 W/m² | - |
| 1787966032 | 35.56° C | 35% | 1014.5 hPa | 0 mm | - | 0 W/m² | - |
| 1787965726 | 35.56° C | 35% | 1014.4 hPa | 0 mm | - | 1 W/m² | - |
| 1787965426 | 36.11° C | 34% | 1014.2 hPa | 0 mm | - | 1 W/m² | - |
| 1787965125 | 36.11° C | 34% | 1014.3 hPa | 0 mm | - | 3 W/m² | - |
| 1787964820 | 36.11° C | 34% | 1014.2 hPa | 0 mm | - | 5 W/m² | - |
| 1787964516 | 36.67° C | 33% | 1014.2 hPa | 0 mm | - | 8 W/m² | - |
| 1787964211 | 36.67° C | 33% | 1014.2 hPa | 0 mm | - | 14 W/m² | - |
| 1787963910 | 36.67° C | 32% | 1014.1 hPa | 0 mm | - | 19 W/m² | - |
| 1787963605 | 37.22° C | 32% | 1014.2 hPa | 0 mm | - | 22 W/m² | - |
| 1787963300 | 37.22° C | 32% | 1014.1 hPa | 0 mm | - | 28 W/m² | - |
| 1787962999 | 37.22° C | 31% | 1014.2 hPa | 0 mm | - | 39 W/m² | - |
| 1787962694 | 37.78° C | 31% | 1014.2 hPa | 0 mm | - | 51 W/m² | - |
| 1787962388 | 37.78° C | 30% | 1014 hPa | 0 mm | - | 64 W/m² | - |
| 1787962088 | 38.33° C | 30% | 1013.9 hPa | 0 mm | - | 75 W/m² | - |
| 1787961787 | 37.78° C | 30% | 1014 hPa | 0 mm | - | 83 W/m² | - |
| 1787961486 | 38.33° C | 29% | 1014 hPa | 0 mm | - | 92 W/m² | - |
| 1787961185 | 37.78° C | 29% | 1013.9 hPa | 0 mm | - | 91 W/m² | - |
| 1787960885 | 38.33° C | 28% | 1013.9 hPa | 0 mm | - | 90 W/m² | - |
| 1787960580 | 37.78° C | 29% | 1013.9 hPa | 0 mm | - | 96 W/m² | - |
| 1787960278 | 37.78° C | 29% | 1013.9 hPa | 0 mm | - | 102 W/m² | - |
| 1787959978 | 38.33° C | 29% | 1013.9 hPa | 0 mm | - | 114 W/m² | - |
| 1787959673 | 38.33° C | 29% | 1013.7 hPa | 0 mm | - | 128 W/m² | - |
| 1787959372 | 38.33° C | 29% | 1013.7 hPa | 0 mm | - | 141 W/m² | - |
* Rain latest hour (hover to see other rain measurements)
** Current wind speed in m/s (hover to see current wind gust speed)